CAPE
87 1 0 66 103 114 9 70 73 27 0 0 0 0 0 0 55 43 0 0 1 266 880 868 1804 1849 2005 2055 1918 1806 1726 2211 1993 1732 1720 1638 1595 1804 2334 2263 2296 2474 2350 2451 2444 2294 2211 2314 2470
36 0 6 256 33 69 50 124 181 26 0 0 0 0 241 224 74 0 0 0 39 356 886 1086 2213 2217 1980 2118 1903 1680 1868 2235 2040 2073 2084 1527 1601 1700 1647 2007 2008 2000 2226 2314 2405 2099 2035 2141 2236
4 4 246 215 27 73 117 110 146 13 0 4 188 169 271 194 0 0 0 17 195 722 1087 1497 1911 2228 1990 2078 1993 1750 2034 1962 1943 1968 1932 1459 1418 1556 1485 1571 1853 1768 2061 2315 2249 2144 2064 1993 1884
10 50 258 312 128 9 19 177 43 17 11 238 207 113 57 0 0 0 0 82 412 887 1096 1848 2165 2164 2018 2079 2031 1732 2128 2000 1765 1843 1772 1769 1165 1695 1486 1595 1742 1863 2024 2120 1994 2026 1957 1922 1994
85 345 189 170 18 21 99 368 33 4 13 203 176 31 10 72 0 0 14 139 386 656 1154 1693 2477 2365 2046 1890 2025 1820 1941 1886 1717 1818 1687 1724 1353 1621 1599 1789 1735 1769 1908 1894 1901 1891 2028 1917 2021
420 325 139 228 40 24 133 138 266 184 124 76 71 50 19 108 0 0 34 177 334 668 962 1120 1823 1955 2110 2073 1689 1695 1915 1643 1969 1853 1868 1786 1736 1731 1662 1571 1527 1450 1596 1808 1773 2069 2189 2222 2121
211 259 170 81 101 39 47 101 381 386 102 81 50 58 76 12 0 15 158 366 462 766 1019 1180 1396 1742 1801 1727 1771 1687 1949 1732 1866 1801 1897 1763 1722 1741 1822 1668 1785 1517 1573 1440 1821 2066 2169 2364 2363
242 219 56 43 129 117 8 141 155 433 80 62 49 45 19 25 39 89 294 511 597 671 979 1571 1761 1778 1630 1836 1743 1734 1834 1839 1855 1815 1754 1823 1807 1823 1569 1665 1760 1515 1435 1711 1752 1895 2095 2198 2477
24 57 21 3 84 107 61 131 132 213 147 317 113 115 5 26 60 135 363 530 661 766 949 1195 1510 1588 1631 1477 1677 1709 1855 1883 1902 1692 1807 1989 1856 1785 1627 1800 1782 1567 1438 1548 1425 1822 2165 2206 2343
54 62 13 56 49 46 79 70 239 259 184 130 143 82 7 47 57 124 260 397 448 753 1138 1300 1424 1454 1618 1571 1808 1917 1944 1934 2040 1989 2100 2214 2099 1825 1677 1844 1873 1829 1407 1509 1650 1926 1404 1347 1801
50 78 12 146 95 65 61 117 168 257 223 143 103 42 1 25 42 98 167 254 485 771 1070 1195 1296 1183 1359 1516 1741 1807 1782 1809 2201 2025 1847 2002 1972 2002 1956 2183 1942 1730 1146 1389 785 869 1226 1649 1712
1 0 17 136 136 78 17 121 97 120 274 148 105 0 0 16 57 98 121 124 236 630 835 861 1029 901 1373 1851 1481 1513 1432 1511 1412 1504 1319 1971 1724 1941 2200 2022 2174 2022 792 879 1121 949 1560 1683 1907
7 0 0 60 190 63 88 153 23 170 260 95 52 0 0 24 82 82 54 50 85 202 505 715 655 1043 1346 1639 1452 1408 1283 1315 1450 971 1061 1460 1466 1753 1900 2057 1734 1699 1263 830 1254 1449 1625 1813 1885
1 0 0 112 205 68 141 185 219 289 338 137 40 1 40 140 154 135 67 48 104 249 457 692 379 1116 1345 1384 1536 1465 1282 1356 1166 883 1349 1203 1205 1307 1291 1535 1431 1516 1361 1212 1605 1698 1764 1934 1792
0 0 0 0 80 216 180 75 133 367 377 210 155 104 107 136 142 175 144 110 75 218 477 550 341 745 1148 1230 1333 1231 1156 1194 1394 1559 1430 1550 1218 1128 1399 1062 1008 1292 1190 1036 1564 1665 1750 1594 1226
1 0 0 120 76 121 296 124 261 586 629 293 232 178 161 182 182 181 183 59 20 0 407 395 163 538 913 1028 1132 1060 1213 1434 1603 1730 1519 1535 1443 1332 1129 1401 1188 1204 847 1328 1355 1520 1322 1303 1238
0 0 0 130 195 349 347 191 619 625 577 375 168 198 170 186 204 245 251 130 0 26 323 299 342 689 840 1044 831 1064 1410 1485 1676 1666 1511 1116 1391 1305 756 1098 1421 981 994 1276 1407 1481 1248 1335 1198
0 0 0 0 280 472 300 263 550 690 650 441 338 198 179 152 184 258 275 262 92 56 254 328 402 808 1084 1004 960 1082 1470 1542 1625 1677 1623 1196 1460 1521 1191 999 1384 1148 826 1143 1462 1576 1368 1338 1135
0 0 0 0 18 386 60 81 320 672 665 810 451 350 227 150 140 215 293 271 205 97 163 426 579 966 1058 1012 926 1121 1393 1601 1983 1666 1619 1356 1100 1765 1818 1395 1284 1246 1091 1133 1707 1399 1457 1282 1202
0 0 0 0 0 20 5 1 220 502 823 853 710 425 329 241 156 166 240 208 226 187 146 469 619 988 1108 1086 1283 1433 1651 1662 1727 1674 1677 1240 1484 2128 2155 1663 1627 1570 1325 2019 1759 1725 1299 1540 1047
0 0 0 0 0 129 149 126 415 446 741 836 770 621 457 396 287 190 217 150 221 271 263 429 710 843 1068 1096 1287 1386 1526 1571 1621 1685 1582 1943 1324 1766 2080 1735 1751 2031 1729 1631 2053 1815 1712 1109 1122
0 0 0 0 0 0 24 26 177 398 507 714 767 640 506 466 381 279 209 146 146 286 336 482 695 822 924 1155 1258 1568 1369 2076 1404 1691 1662 1697 2108 1943 1759 1948 1680 1747 1571 1790 1773 1616 1536 1196 880
0 0 0 0 0 0 0 0 0 542 256 155 386 762 620 329 374 382 222 223 193 227 306 419 692 815 868 1040 1343 1537 1552 1396 1418 1505 1916 1919 2346 2211 1553 2176 1853 1701 1508 1990 1878 2087 1916 1536 1253
0 0 0 0 0 0 0 0 0 0 1 76 140 137 521 531 251 351 311 210 224 243 302 330 659 1107 911 1005 1101 1433 1636 1477 1431 1469 1552 1622 2494 2184 2310 1921 2114 2191 1811 1965 1949 2376 2237 2032 2376
0 0 0 0 0 0 0 0 4 7 5 10 17 35 95 207 542 420 330 208 197 275 329 352 679 1143 993 886 1023 1058 1343 1699 1822 1947 1563 1585 1666 1870 2456 2229 2253 2205 2403 2192 1998 2370 2457 2298 2348
0 0 0 0 0 0 0 0 7 2 4 5 16 30 15 44 138 619 422 342 169 370 436 371 781 1123 831 849 1164 1331 1131 1001 1214 1716 1349 1409 1464 1703 2384 2519 2347 2160 2147 2085 2173 2086 2168 2323 2254
0 0 0 0 0 0 0 0 0 0 0 3 24 117 138 248 48 346 613 383 265 377 589 572 869 1097 889 835 1293 1056 1185 1012 1112 1572 1795 1463 1788 1690 2133 2354 2403 2154 2345 2262 2402 2004 2504 2530 2680
0 0 0 0 0 0 0 0 3 4 7 0 35 132 127 208 214 111 575 473 301 387 492 531 682 993 1196 840 1081 855 794 834 878 1268 1578 1562 1709 1862 1944 2187 2233 2288 2354 2485 2502 2222 2296 2441 2339
0 0 0 0 0 0 0 2 16 9 1 0 44 175 477 109 92 242 503 646 257 261 431 478 523 661 772 766 1055 1115 810 660 768 716 1215 1553 1781 1983 2125 2301 2323 2362 2424 2547 2573 2364 2148 2331 2444
0 0 0 0 0 0 0 1 9 8 3 5 28 117 205 377 148 133 212 284 307 310 306 432 383 503 593 893 1146 877 936 807 669 655 640 1072 1549 1945 2129 2146 2164 2180 2297 2515 2464 2215 1912 2145 2155
CIN
-18 -0 -0 -56 -0 -0 -1 -7 -14 -35 -36 -0 -0 -0 -0 -0 -81 -66 -0 -0 -4 -77 -10 -9 -0 -0 -0 -0 -0 -0 -0 -0 -0 -0 -0 -0 -0 -0 -0 -0 -0 -1 -0 -0 -0 -0 -0 -0 -0
-45 -0 -14 -0 -3 -1 -0 -1 -6 -24 -0 -0 -0 -0 -28 -33 -74 -0 -0 -0 -128 -62 -7 -0 -0 -0 -0 -0 -0 -0 -0 -0 -0 -0 -0 -0 -0 -0 -0 -0 -0 -0 -0 -0 -0 -0 -0 -0 -1
-7 -45 -2 -3 -6 -4 -1 -7 -30 -14 -0 -75 -24 -23 -43 -70 -0 -0 -0 -201 -84 -27 -0 -0 -0 -0 -0 -0 -0 -0 -0 -0 -0 -0 -0 -3 -0 -0 -0 -0 -0 -0 -0 -0 -0 -0 -2 -1 -6
-22 -8 -0 -0 -1 -2 -21 -29 -23 -60 -66 -58 -44 -84 -76 -3 -0 -0 -0 -115 -48 -15 -2 -0 -0 -0 -0 -0 -0 -0 -0 -0 -0 -2 -0 -0 -1 -0 -2 -0 -0 -0 -0 -0 -0 -0 -0 -5 -7
-31 -0 -13 -9 -5 -17 -14 -5 -21 -16 -39 -40 -77 -44 -22 -120 -0 -0 -110 -61 -43 -26 -5 -0 -0 -0 -0 -0 -0 -0 -0 -0 -0 -1 -0 -0 -0 -0 -0 -0 -0 -0 -0 -0 -0 -0 -4 -12 -9
-2 -0 -10 -5 -4 -13 -13 -20 -32 -7 -52 -81 -54 -13 -40 -103 -0 -0 -86 -42 -41 -30 -14 -2 -0 -0 -0 -0 -0 -0 -0 -0 -0 -0 -0 -0 -0 -0 -0 -0 -0 -0 -0 -0 -0 -2 -7 -8 -7
-26 -7 -1 -11 -6 -19 -30 -17 -2 -2 -33 -72 -22 -13 -101 -46 -0 -33 -43 -16 -26 -14 -11 -4 -0 -0 -0 -0 -0 -0 -0 -0 -0 -0 -0 -0 -0 -0 -0 -0 -0 -0 -0 -3 -3 -6 -7 -4 -4
-21 -18 -25 -30 -0 -16 -63 -21 -3 -0 -49 -73 -22 -18 -170 -199 -146 -48 -10 -4 -5 -13 -9 -0 -0 -0 -0 -0 -0 -0 -0 -0 -0 -0 -0 -0 -0 -0 -0 -1 -0 -0 -0 -4 -6 -7 -4 -4 -3
-85 -33 -31 -9 -5 -11 -45 -18 -25 -24 -41 -13 -40 -65 -106 -188 -136 -31 -0 -0 -0 -1 -3 -0 -0 -0 -0 -0 -0 -0 -0 -0 -0 -0 -0 -1 -0 -0 -0 -0 -0 -0 -0 -7 -15 -11 -15 -11 -3
-69 -37 -40 -28 -27 -44 -42 -63 -3 -6 -30 -38 -58 -108 -113 -148 -132 -67 -31 -18 -2 -3 -0 -0 -0 -0 -0 -0 -0 -0 -0 -0 -0 -0 -0 -0 -0 -0 -0 -0 -0 -0 -1 -8 -20 -19 -44 -18 -1
-59 -30 -55 -26 -37 -83 -70 -67 -35 -10 -43 -69 -138 -176 -0 -175 -126 -63 -60 -57 -29 -3 -0 -0 -0 -0 -0 -0 -0 -0 -0 -0 -0 -0 -0 -0 -0 -0 -0 -0 -0 -0 -25 -1 -33 -35 -23 -18 -15
-2 -0 -47 -37 -47 -91 -0 -78 -55 -54 -40 -89 -151 -0 -0 -193 -113 -83 -76 -88 -65 -20 -5 -9 -0 -15 -0 -0 -0 -0 -0 -0 -0 -2 -12 -0 -0 -0 -0 -0 -0 -0 -36 -43 -39 -30 -25 -24 -30
-10 -0 -0 -34 -31 -52 -84 -68 -88 -50 -44 -112 -172 -0 -0 -156 -68 -50 -60 -111 -102 -74 -34 -25 -30 -7 -0 -0 -0 -0 -0 -0 -1 -30 -24 -8 -3 -0 -0 -0 -0 -4 -23 -42 -35 -32 -20 -21 -16
-9 -0 -0 -37 -26 -32 -25 -37 -33 -43 -55 -82 -142 -43 -121 -96 -80 -59 -107 -127 -121 -69 -35 -32 -65 -3 -1 -1 -0 -0 -3 -5 -12 -30 -11 -26 -28 -18 -15 -12 -13 -16 -26 -38 -27 -32 -21 -21 -20
-0 -0 -0 -0 -55 -10 -15 -60 -78 -39 -68 -57 -68 -67 -48 -44 -64 -77 -90 -113 -121 -84 -54 -37 -77 -24 -8 -18 -12 -6 -7 -10 -4 -15 -26 -9 -33 -34 -12 -21 -29 -22 -40 -50 -35 -36 -34 -19 -19
-13 -0 -0 -80 -74 -31 -10 -16 -35 -30 -30 -78 -66 -60 -48 -28 -60 -54 -70 -106 -113 -0 -83 -61 -104 -45 -19 -30 -30 -18 -11 -9 -10 -14 -22 -29 -24 -31 -38 -10 -18 -35 -53 -23 -26 -20 -22 -14 -7
-0 -0 -0 -67 -61 -11 -11 -11 -24 -26 -31 -60 -94 -61 -39 -28 -34 -41 -56 -89 -0 -58 -96 -93 -83 -45 -33 -33 -39 -26 -15 -13 -16 -22 -23 -38 -35 -38 -55 -19 -15 -50 -39 -28 -20 -19 -19 -11 -8
-0 -0 -0 -0 -57 -40 -22 -46 -30 -13 -14 -53 -53 -55 -41 -31 -30 -31 -43 -60 -72 -105 -90 -76 -71 -45 -30 -30 -39 -28 -19 -13 -16 -18 -18 -37 -31 -28 -38 -30 -23 -31 -35 -25 -20 -23 -23 -21 -20
-0 -0 -0 -0 -92 -19 -30 -35 -51 -24 -14 -4 -46 -56 -36 -43 -37 -27 -46 -45 -53 -74 -96 -72 -70 -45 -36 -31 -27 -23 -17 -14 -11 -13 -20 -32 -49 -24 -18 -20 -32 -32 -22 -19 -25 -27 -27 -14 -41
-0 -0 -0 -0 -0 -50 -15 -8 -132 -98 -45 -33 -39 -63 -44 -18 -27 -30 -37 -40 -48 -62 -76 -68 -70 -48 -44 -35 -32 -30 -23 -24 -18 -18 -15 -24 -25 -17 -16 -21 -22 -30 -17 -17 -23 -32 -17 -14 -48
-0 -0 -0 -0 -0 -40 -93 -84 -120 -133 -78 -51 -30 -35 -35 -32 -30 -35 -34 -42 -42 -40 -62 -77 -70 -59 -50 -38 -39 -49 -42 -40 -18 -18 -12 -7 -3 -8 -21 -24 -18 -24 -19 -11 -23 -31 -26 -7 -36
-0 -0 -0 -0 -0 -0 -88 -1 -135 -131 -82 -33 -7 -17 -58 -56 -46 -30 -34 -43 -63 -55 -57 -64 -71 -65 -52 -43 -27 -29 -5 -8 -9 -12 -15 -9 -12 -4 -2 -19 -28 -30 -17 -26 -22 -28 -28 -33 -12
-0 -0 -0 -0 -0 -0 -0 -0 -0 -58 -75 -94 -24 -8 -10 -63 -47 -32 -49 -48 -70 -62 -61 -74 -77 -71 -51 -53 -19 -15 -7 -7 -11 -19 -19 -15 -14 -13 -16 -12 -20 -25 -14 -20 -27 -27 -36 -24 -14
-0 -0 -0 -0 -0 -0 -0 -0 -0 -0 -0 -123 -85 -105 -39 -47 -102 -72 -38 -45 -58 -62 -71 -69 -90 -77 -79 -66 -42 -23 -12 -16 -13 -15 -11 -9 -7 -8 -11 -15 -19 -17 -16 -18 -15 -15 -24 -31 -20
-0 -0 -0 -0 -0 -0 -0 -0 -0 -0 -0 -176 -286 -249 -82 -95 -64 -81 -90 -100 -81 -71 -90 -88 -104 -86 -101 -91 -60 -49 -29 -14 -16 -20 -11 -12 -8 -7 -8 -15 -14 -11 -10 -18 -20 -15 -12 -18 -11
-0 -0 -0 -0 -0 -0 -0 -0 -0 -0 -0 -0 -253 -285 -390 -372 -153 -120 -130 -112 -141 -104 -98 -140 -143 -110 -128 -114 -86 -60 -58 -40 -16 -12 -9 -7 -8 -9 -8 -14 -13 -7 -9 -11 -15 -6 -6 -13 -11
-0 -0 -0 -0 -0 -0 -0 -0 -0 -0 -0 -0 -258 -240 -301 -319 -394 -213 -117 -116 -99 -139 -109 -115 -124 -125 -146 -140 -96 -96 -75 -73 -47 -21 -28 -21 -22 -14 -24 -14 -15 -17 -13 -12 -9 -2 -4 -6 -4
-0 -0 -0 -0 -0 -0 -0 -0 -0 -0 -0 -0 -260 -227 -275 -313 -313 -239 -116 -109 -101 -77 -115 -120 -126 -132 -131 -143 -126 -118 -121 -104 -90 -43 -30 -40 -35 -35 -32 -22 -14 -17 -12 -10 -14 -8 -8 -10 -1
-0 -0 -0 -0 -0 -0 -0 -0 -0 -0 -0 -0 -194 -164 -133 -262 -349 -265 -188 -94 -117 -103 -133 -148 -135 -132 -135 -126 -110 -109 -130 -128 -107 -89 -42 -31 -35 -42 -36 -27 -21 -15 -16 -9 -17 -15 -11 -10 -4
-0 -0 -0 -0 -0 -0 -0 -0 -0 -0 -0 -0 -166 -151 -143 -123 -232 -275 -213 -153 -165 -133 -87 -108 -121 -125 -141 -112 -97 -109 -116 -128 -114 -116 -109 -59 -31 -33 -38 -36 -31 -30 -18 -17 -15 -13 -11 -12 -10
Wind_Speed
nan nan nan nan 8 7 nan nan nan nan nan nan nan nan nan nan nan nan nan nan nan 11 11 13 11 10 8 9 7 8 10 12 11 10 7 4 2 4 4 6 6 6 7 7 7 8 11 10 9
nan nan nan 13 nan nan nan 19 21 nan nan nan nan nan 11 11 nan nan nan nan nan 9 11 11 11 12 10 9 10 11 12 11 9 9 7 4 2 2 6 5 6 7 7 7 5 4 7 9 9
nan nan 10 16 nan nan 12 20 22 nan nan nan 5 5 9 12 nan nan nan nan 12 9 9 9 11 13 10 9 9 10 11 10 9 5 5 1 3 5 6 5 5 6 8 5 5 5 10 10 11
nan nan 8 13 14 nan nan 24 nan nan nan 9 1 8 nan nan nan nan nan nan 10 9 8 7 11 11 11 10 9 9 9 11 11 10 8 5 5 5 7 5 2 5 6 7 6 8 10 12 7
nan 3 9 8 nan nan nan 22 nan nan nan 5 6 nan nan nan nan nan nan 11 10 8 7 7 8 8 9 7 9 9 10 12 11 9 9 9 7 5 4 2 2 4 7 7 7 9 11 10 6
1 6 8 5 nan nan 18 21 17 12 10 nan nan nan nan 1 nan nan nan 9 10 9 7 7 6 7 7 9 10 9 10 10 12 11 10 8 10 6 3 4 2 7 8 9 9 10 11 7 3
4 6 3 nan 2 nan nan 26 24 17 7 nan nan nan nan nan nan nan 7 8 10 9 7 9 9 9 9 9 10 8 10 9 10 10 9 9 8 7 4 5 7 6 7 5 6 8 8 5 3
5 4 nan nan 10 13 nan 13 21 23 nan nan nan nan nan nan nan nan 7 8 9 8 8 9 9 9 11 11 10 9 7 7 9 11 10 8 7 5 4 5 7 5 5 5 5 5 6 4 3
nan nan nan nan nan 18 nan 13 29 24 15 12 6 2 nan nan nan 5 5 7 8 9 9 9 10 11 12 10 10 8 6 8 6 10 10 10 9 7 6 5 4 7 9 6 5 3 5 6 3
nan nan nan nan nan nan nan nan 18 26 13 15 14 nan nan nan nan 5 6 8 9 9 10 9 12 11 13 12 12 11 9 9 8 9 9 11 7 8 7 5 2 4 5 4 4 4 3 4 3
nan nan nan 9 nan nan nan 10 24 21 13 9 7 nan nan nan nan nan 10 10 10 11 10 9 10 12 13 11 13 10 8 9 7 5 6 8 8 8 8 8 8 7 9 10 8 5 4 6 6
nan nan nan 9 15 nan nan 2 nan 21 23 10 10 nan nan nan nan nan 6 9 9 11 12 9 10 11 11 14 13 12 9 10 9 6 5 5 7 7 10 9 8 9 10 10 11 10 9 9 10
nan nan nan nan 12 nan nan 3 nan 17 22 nan nan nan nan nan nan nan nan nan nan 12 11 10 9 10 11 15 12 11 9 11 10 8 7 8 8 9 6 7 9 10 12 12 13 14 11 13 14
nan nan nan 5 8 nan 10 3 3 18 13 6 nan nan nan 10 7 4 nan nan 10 11 11 9 10 9 10 12 11 10 11 11 13 10 11 10 14 12 9 5 7 13 14 13 16 14 13 16 20
nan nan nan nan nan 1 4 nan 11 16 11 2 8 7 8 8 4 4 5 6 nan 12 11 11 10 8 12 11 12 10 11 11 12 12 14 14 19 18 14 12 11 12 15 15 15 14 14 18 21
nan nan nan 7 nan 5 4 7 8 11 7 5 8 8 7 8 10 4 5 nan nan nan 12 10 10 9 14 11 11 10 11 14 13 11 15 16 13 15 15 14 11 12 12 15 15 14 13 15 17
nan nan nan 10 4 8 7 17 17 18 8 1 5 7 7 7 9 5 5 6 nan nan 10 11 9 10 14 12 14 10 10 15 15 14 14 11 14 13 13 12 11 12 13 12 14 14 13 13 14
nan nan nan nan 6 14 6 17 22 19 12 6 3 5 6 5 6 5 7 7 nan nan 10 11 9 7 11 14 12 11 11 11 15 16 17 12 11 10 12 11 12 12 12 12 13 11 12 14 13
nan nan nan nan nan 11 nan nan 14 18 14 8 4 4 5 3 3 5 6 9 10 nan 8 9 8 6 8 13 13 16 15 10 13 14 14 15 12 8 10 11 9 10 11 13 13 12 11 11 13
nan nan nan nan nan nan nan nan 20 12 5 4 2 3 7 5 3 4 2 7 8 11 11 8 9 7 7 12 16 14 11 8 10 12 10 13 14 9 7 7 9 9 10 12 12 17 18 16 16
nan nan nan nan nan 25 23 21 26 19 11 8 4 3 5 4 3 3 4 6 8 10 11 9 10 10 8 11 14 15 13 10 8 10 11 10 11 10 10 10 8 7 12 12 13 14 19 17 14
nan nan nan nan nan nan nan nan 29 26 19 24 12 7 3 1 2 1 3 6 8 10 11 11 9 10 10 9 14 12 13 11 9 8 9 10 6 7 7 10 11 9 10 11 12 12 13 16 14
nan nan nan nan nan nan nan nan nan 29 33 30 20 15 12 7 5 5 4 6 12 12 12 11 10 10 10 10 13 13 12 12 11 8 4 7 8 6 6 5 8 10 11 11 12 12 11 11 15
nan nan nan nan nan nan nan nan nan nan nan nan 36 30 15 13 10 10 6 7 8 12 12 12 10 9 8 7 9 15 12 11 9 8 7 7 7 6 6 4 5 6 9 12 14 13 12 13 12
nan nan nan nan nan nan nan nan nan nan nan nan nan nan nan 23 11 12 8 4 6 4 7 9 9 8 6 7 6 11 13 11 7 8 9 4 5 5 2 3 3 4 5 8 12 13 13 13 13
nan nan nan nan nan nan nan nan nan nan nan nan nan nan nan nan 20 7 8 9 6 4 7 11 11 9 7 5 7 9 10 12 12 8 10 10 6 5 3 3 3 3 5 5 7 11 13 12 11
nan nan nan nan nan nan nan nan nan nan nan nan nan 44 40 36 nan 11 7 13 12 8 5 9 14 14 12 8 10 10 11 12 13 10 8 9 10 7 4 3 3 4 4 6 6 9 10 12 13
nan nan nan nan nan nan nan nan nan nan nan nan nan 49 47 45 34 21 18 12 13 15 16 14 15 16 16 14 13 12 12 13 14 12 9 8 6 6 3 3 5 4 4 5 6 9 10 11 12
nan nan nan nan nan nan nan nan nan nan nan nan nan 45 49 47 nan 41 37 24 16 15 15 16 18 20 19 18 17 15 14 14 14 14 12 10 8 7 5 3 4 6 4 3 3 7 10 10 11
nan nan nan nan nan nan nan nan nan nan nan nan nan 47 46 46 46 45 43 45 44 31 19 18 20 20 21 26 25 19 19 17 14 14 13 12 10 9 6 4 4 5 7 6 6 5 8 9 10
Wind_Direction
nan nan nan nan 14 52 nan nan nan nan nan nan nan nan nan nan nan nan nan nan nan 38 48 47 48 41 35 29 33 34 25 25 359 354 328 296 277 139 139 94 110 158 168 170 169 164 168 160 153
nan nan nan 19 nan nan nan 153 162 nan nan nan nan nan 82 111 nan nan nan nan nan 23 47 40 47 41 28 36 49 46 37 24 11 10 332 290 208 142 138 125 129 152 171 180 153 150 192 155 141
nan nan 29 19 nan nan 138 163 149 nan nan nan 153 91 83 119 nan nan nan nan 357 12 47 41 39 41 37 50 48 49 41 29 24 22 7 315 152 166 154 128 119 141 161 171 148 127 141 155 139
nan nan 45 32 35 nan nan 155 nan nan nan 150 280 185 nan nan nan nan nan nan 3 8 32 36 31 29 45 64 53 47 42 38 35 45 56 87 120 141 145 120 163 144 154 165 142 137 138 144 141
nan 50 58 32 nan nan nan 170 nan nan nan 130 127 nan nan nan nan nan nan 37 12 9 18 30 32 40 62 64 48 45 41 50 53 73 70 87 83 76 100 90 225 187 161 154 143 145 143 134 130
25 86 84 34 nan nan 200 176 173 193 159 nan nan nan nan 18 nan nan nan 34 25 12 26 41 43 52 63 38 35 35 44 49 62 72 76 81 79 70 64 36 311 183 156 152 145 153 155 150 178
141 107 93 nan 343 nan nan 172 176 177 177 nan nan nan nan nan nan nan 29 36 34 21 29 55 56 52 47 41 33 31 46 48 68 77 78 79 84 76 55 58 77 132 137 136 145 149 165 198 220
132 112 nan nan 6 337 nan 227 168 182 nan nan nan nan nan nan nan nan 38 38 44 37 39 56 60 50 40 37 29 32 47 59 67 77 70 68 70 79 77 77 118 121 89 129 146 153 187 202 241
nan nan nan nan nan 359 nan 237 186 164 164 159 126 13 nan nan nan 40 49 63 59 56 47 55 53 47 44 44 41 25 68 70 63 93 97 100 106 104 77 132 119 130 127 119 135 165 195 203 237
nan nan nan nan nan nan nan nan 190 165 177 175 215 nan nan nan nan 47 59 65 59 55 43 56 55 48 51 55 52 55 78 85 84 106 105 103 106 112 118 87 118 142 117 119 149 174 168 142 129
nan nan nan 288 nan nan nan 4 182 144 148 153 309 nan nan nan nan nan 44 45 62 66 73 59 63 61 55 59 67 58 64 74 93 99 99 111 104 104 107 104 107 102 123 102 93 81 113 131 131
nan nan nan 281 326 nan nan 146 nan 148 165 176 331 nan nan nan nan nan 76 82 70 72 78 80 71 66 61 62 66 56 73 68 92 86 135 108 128 115 121 103 98 100 107 108 106 95 105 118 121
nan nan nan nan 353 nan nan 90 nan 179 180 nan nan nan nan nan nan nan nan nan nan 85 81 83 76 67 74 69 66 69 78 78 81 89 83 106 117 152 130 100 94 110 108 108 102 91 102 112 117
nan nan nan 317 7 nan 21 287 324 183 210 243 nan nan nan 15 49 92 nan nan 82 88 87 92 74 75 83 80 60 69 76 78 86 90 78 85 106 131 150 114 107 106 107 109 107 100 108 122 120
nan nan nan nan nan 16 37 nan 163 176 211 237 20 8 30 35 30 92 100 103 nan 96 96 96 85 78 91 83 67 70 79 80 84 98 91 80 100 107 115 116 103 96 107 109 106 106 105 118 124
nan nan nan 193 nan 136 95 173 174 205 213 20 22 25 27 26 36 59 110 nan nan nan 100 96 97 89 93 90 72 86 87 91 86 96 93 83 97 96 114 103 106 101 102 107 104 105 105 115 117
nan nan nan 200 115 161 104 153 149 138 154 69 51 27 32 31 42 72 130 150 nan nan 114 103 88 93 93 93 90 86 88 96 101 102 98 86 92 93 100 106 110 105 114 111 107 111 112 113 116
nan nan nan nan 173 161 145 173 171 156 135 105 44 31 50 40 60 99 148 161 nan nan 127 105 90 101 110 121 110 107 99 101 102 98 102 100 101 96 102 112 111 107 115 117 117 125 131 130 128
nan nan nan nan nan 181 nan nan 169 166 153 119 52 41 74 72 49 72 149 172 154 nan 131 124 105 93 122 118 109 112 102 100 103 100 97 102 106 108 104 116 112 110 117 121 116 127 139 139 135
nan nan nan nan nan nan nan nan 184 170 184 301 72 80 73 70 346 85 111 173 161 136 136 144 123 105 109 119 124 119 118 129 122 113 103 101 102 120 119 115 114 113 119 120 132 133 124 128 129
nan nan nan nan nan 196 191 192 183 192 199 214 163 107 62 57 65 96 133 164 161 151 144 156 142 123 125 134 147 153 155 156 136 117 118 110 109 116 117 113 137 119 116 119 125 127 128 127 128
nan nan nan nan nan nan nan nan 199 186 189 190 207 162 143 26 64 340 134 150 167 168 163 162 159 137 142 156 148 146 131 136 129 115 121 123 128 127 115 118 137 141 133 124 136 138 137 129 136
nan nan nan nan nan nan nan nan nan 208 212 198 201 180 161 126 151 135 149 169 180 179 179 174 170 154 150 164 146 143 136 146 154 144 135 125 136 142 136 134 131 135 134 134 128 133 145 154 145
nan nan nan nan nan nan nan nan nan nan nan nan 195 191 176 162 125 167 194 185 180 189 185 187 176 168 164 164 149 137 143 153 170 153 149 153 146 147 152 162 153 138 142 143 141 144 150 165 168
nan nan nan nan nan nan nan nan nan nan nan nan nan nan nan 178 201 172 165 191 161 185 195 206 192 182 194 162 157 145 144 153 151 155 147 154 135 135 145 125 152 156 143 148 151 152 158 166 168
nan nan nan nan nan nan nan nan nan nan nan nan nan nan nan nan 177 196 174 169 191 169 193 206 221 206 213 208 167 174 162 169 158 161 161 146 129 115 162 160 161 175 211 186 173 161 159 166 168
nan nan nan nan nan nan nan nan nan nan nan nan nan 206 205 190 nan 175 205 183 184 183 205 205 201 206 213 236 216 189 187 177 172 173 183 172 157 148 131 174 179 190 205 222 191 167 168 165 162
nan nan nan nan nan nan nan nan nan nan nan nan nan 204 203 205 213 208 203 221 203 191 192 198 202 205 208 209 227 220 196 201 187 183 185 196 188 171 160 138 181 200 202 210 206 184 184 171 174
nan nan nan nan nan nan nan nan nan nan nan nan nan 208 206 211 nan 219 214 212 224 222 215 202 204 201 212 212 208 219 218 212 207 197 190 188 201 216 191 167 165 166 183 191 228 197 191 183 183
nan nan nan nan nan nan nan nan nan nan nan nan nan 221 216 216 219 216 220 220 215 221 230 222 205 204 207 220 215 208 213 220 220 218 211 204 197 218 232 198 182 165 172 188 173 207 207 194 188